{"data":{"norad_id":60028,"intl_designator":"2024-111N","name":"STARLINK-32008","alt_names":[],"object_type":"PAYLOAD","status":"ACTIVE","operator":null,"country":"US","launch_date":"2024-06-08","launch_site_code":"AFETR","launch_vehicle":null,"mission":null,"orbit_class":"UNKNOWN","rcs_meters":null,"size_class":null,"mass_kg":null,"dimensions":null,"purposes":["comms"],"wikipedia_slug":null,"has_3d_model":false,"image_url":null,"decayed_at":null,"tle_current":{"epoch":"2026-05-25T02:23:17.092896Z","epoch_age_seconds":62495,"freshness":"FRESH","line1":"1 60028U 24111N   26145.09950339  .00000083  00000+0  14939-4 0  9991","line2":"2 60028  53.1603  80.6000 0001346  66.4249 293.6893 15.30193884110739","mean_motion":15.30193884,"eccentricity":0.0001346,"inclination_deg":53.1603,"raan_deg":80.6,"arg_perigee_deg":66.4249,"mean_anomaly_deg":293.6893,"bstar":1.4939e-5,"rev_number":11073,"period_min":94.105721834136,"perigee_km":474.31086710721,"apogee_km":476.15579440025,"semimajor_km":6853.3703307537,"source":"CELESTRAK","updated_at":"2026-05-25T13:38:19.133162Z"}}}